FW0428 Weather Reports


Display with metric or nautical units.
time (UTC)temp
F
wind
direction
speed
MPH
gust
MPH
rain 1hr
in
rain 24hr
in
rain mn
in
humidity
%
barometer
mb
20260903183035 90 88 0.0 3.0 0.00 2.45 1.88 64 1012.9
20260903181644 89 108 0.0 3.0 0.00 2.45 1.88 68 1013.3
20260903180145 88 268 0.0 3.0 0.00 2.45 1.88 67 1013.5
20260903174503 88 63 0.0 4.0 0.00 2.45 1.88 66 1013.7
20260903160027 84 69 0.0 3.0 0.00 2.45 1.88 77 1014.0
20260903153120 83 150 0.0 2.0 0.00 2.45 1.88 82 1013.6
20260903143149 76 79 0.0 3.0 0.00 2.45 1.88 96 1013.7
20260903140104 74 284 0.0 2.0 0.00 2.45 1.88 96 1013.8
20260903104642 73 240 0.0 0.0 0.01 2.45 1.88 97 1012.5
20260903101546 73 16 0.0 2.0 0.10 2.45 1.88 96 1012.7
20260903094635 74 126 0.0 1.0 0.60 2.44 1.87 97 1012.7
20260903093049 73 88 0.0 0.0 0.66 2.44 1.87 97 1012.9
20260903091612 73 88 0.0 2.0 0.61 2.35 1.78 96 1012.8
20260903083053 73 72 0.0 2.0 0.12 1.78 1.21 96 1012.6
20260903081542 73 35 0.0 1.0 0.10 1.73 1.15 96 1012.6
20260903070023 75 170 0.0 5.0 0.84 1.46 0.91 96 1012.8
20260903064555 75 221 0.0 2.0 0.78 1.36 0.79 96 1012.7
20260903063015 75 268 0.0 2.0 0.44 1.01 0.46 96 1012.7
20260903061559 75 261 0.0 2.0 0.19 0.76 0.20 96 1012.6
20260903060032 75 283 0.0 4.0 0.05 0.62 0.05 95 1012.7
20260903054549 75 233 1.0 4.0 0.02 0.57 0.01 95 1012.5
20260903053107 75 269 1.0 6.0 0.01 0.56 0.00 95 1012.3
20260903051550 75 275 1.0 6.0 0.01 0.56 0.56 95 1012.1
20260903034518 75 271 1.0 6.0 0.20 0.53 0.53 95 1012.0
20260903030029 75 272 1.0 4.0 0.27 0.39 0.39 95 1012.0
20260903014623 76 286 1.0 3.0 0.06 0.06 0.06 91 1011.2
20260903013017 76 255 1.0 6.0 0.04 0.04 0.04 89 1011.0
20260903011644 78 291 2.0 7.0 0.00 0.00 0.00 84 1011.1
20260903010104 79 281 2.0 5.0 0.00 0.00 0.00 80 1010.8
20260902233028 83 294 1.0 6.0 0.00 0.00 0.00 71 1010.9
20260902231617 83 279 1.0 7.0 0.00 0.00 0.00 71 1010.7
20260902230037 84 284 4.0 9.0 0.00 0.00 0.00 70 1010.6
20260902214511 88 267 3.0 7.0 0.00 0.00 0.00 63 1010.5
20260902211644 89 275 2.0 10.0 0.00 0.00 0.00 61 1010.5
20260902201630 88 250 1.0 8.0 0.00 0.00 0.00 64 1010.9